KI7LNA Weather Reports


Display with metric or nautical units.
time (UTC)temp
F
wind
direction
speed
MPH
gust
MPH
rain 1hr
in
rain 24hr
in
rain mn
in
humidity
%
barometer
mb
20260504050402 53 83 1.0 2.0 0.00 0.00 0.00 66 926.5
20260504045902 53 47 2.0 3.0 0.00 0.00 0.00 65 926.9
20260504045401 54 49 2.0 2.0 0.00 0.00 0.00 67 926.9
20260504044902 55 127 2.0 2.0 0.00 0.00 0.00 67 926.9
20260504044402 55 150 3.0 4.0 0.00 0.00 0.00 63 926.9
20260504043902 55 67 3.0 4.0 0.00 0.00 0.00 62 926.9
20260504043401 55 61 2.0 2.0 0.00 0.00 0.00 63 926.9
20260504042903 56 101 2.0 2.0 0.00 0.00 0.00 62 926.9
20260504042402 56 49 0.0 2.0 0.00 0.00 0.00 62 926.9
20260504041902 57 224 0.0 0.0 0.00 0.00 0.00 58 926.9
20260504041401 58 208 0.0 0.0 0.00 0.00 0.00 56 926.9
20260504040901 58 208 0.0 0.0 0.00 0.00 0.00 56 926.9
20260504040402 58 60 2.0 3.0 0.00 0.00 0.00 56 926.9
20260504035902 58 49 3.0 3.0 0.00 0.00 0.00 57 926.5
20260504035408 59 32 3.0 3.0 0.00 0.00 0.00 56 926.5
20260504034903 59 41 4.0 4.0 0.00 0.00 0.00 57 926.5
20260504034402 60 66 2.0 2.0 0.00 0.00 0.00 56 926.5
20260504033905 61 153 3.0 3.0 0.00 0.00 0.00 55 926.5
20260504033401 62 89 2.0 2.0 0.00 0.00 0.00 49 926.5
20260504032901 70 297 0.0 0.0 0.00 0.00 0.00 38 926.5
20260504032402 70 297 0.0 0.0 0.00 0.00 0.00 38 926.5
20260504031904 70 297 0.0 0.0 0.00 0.00 0.00 38 926.5
20260504031403 70 297 0.0 0.0 0.00 0.00 0.00 38 926.5
20260504030901 70 297 0.0 0.0 0.00 0.00 0.00 38 926.2
20260504030401 70 297 0.0 0.0 0.00 0.00 0.00 38 926.2
20260504025902 70 297 0.0 0.0 0.00 0.00 0.00 38 926.2
20260504025401 70 297 0.0 0.0 0.00 0.00 0.00 38 926.2
20260504024902 70 86 1.0 1.0 0.00 0.00 0.00 36 926.2
20260504024401 71 139 0.0 1.0 0.00 0.00 0.00 33 925.8
20260504023901 71 49 0.0 3.0 0.00 0.00 0.00 34 926.2
20260504023403 73 43 2.0 4.0 0.00 0.00 0.00 34 926.2
20260504022902 74 287 0.0 1.0 0.00 0.00 0.00 27 926.2
20260504022402 75 147 0.0 1.0 0.00 0.00 0.00 29 926.2
20260504021902 75 135 0.0 2.0 0.00 0.00 0.00 26 926.2
20260504021402 76 202 0.0 1.0 0.00 0.00 0.00 27 926.2
20260504020902 76 164 1.0 1.0 0.00 0.00 0.00 26 925.8
20260504020401 77 271 0.0 2.0 0.00 0.00 0.00 23 926.2
20260504015902 76 11 0.0 1.0 0.00 0.00 0.00 24 926.2
20260504015402 77 354 2.0 3.0 0.00 0.00 0.00 25 926.2
20260504014902 77 323 3.0 5.0 0.00 0.00 0.00 22 926.2
20260504014401 77 357 3.0 5.0 0.00 0.00 0.00 23 926.2
20260504013902 77 346 4.0 4.0 0.00 0.00 0.00 24 926.2
20260504013401 77 299 4.0 6.0 0.00 0.00 0.00 22 926.5
20260504012902 77 287 6.0 7.0 0.00 0.00 0.00 22 926.5
20260504012402 77 0 4.0 6.0 0.00 0.00 0.00 23 926.5
20260504011901 77 308 4.0 7.0 0.00 0.00 0.00 22 926.5
20260504011401 77 307 4.0 7.0 0.00 0.00 0.00 22 926.5
20260504010901 77 304 7.0 13.0 0.00 0.00 0.00 23 926.5
20260504010402 77 260 4.0 5.0 0.00 0.00 0.00 20 926.5
20260504005902 77 258 5.0 7.0 0.00 0.00 0.00 20 926.9
20260504005403 77 305 3.0 6.0 0.00 0.00 0.00 21 926.9
20260504004903 76 312 5.0 9.0 0.00 0.00 0.00 19 926.5
20260504004402 77 306 10.0 11.0 0.00 0.00 0.00 20 926.9
20260504003902 76 311 8.0 11.0 0.00 0.00 0.00 20 926.9
20260504003401 76 354 6.0 13.0 0.00 0.00 0.00 20 926.9
20260504002902 76 298 12.0 12.0 0.00 0.00 0.00 21 926.9
20260504002401 77 272 9.0 12.0 0.00 0.00 0.00 21 927.2
20260504001902 76 263 13.0 14.0 0.00 0.00 0.00 20 927.2
20260504001401 76 332 7.0 13.0 0.00 0.00 0.00 22 927.2
20260504000902 76 293 9.0 16.0 0.00 0.00 0.00 19 926.9
20260504000401 76 289 10.0 13.0 0.00 0.00 0.00 21 927.2
20260503235902 76 314 9.0 13.0 0.00 0.00 0.00 20 926.9
20260503235401 76 319 8.0 12.0 0.00 0.00 0.00 19 926.9
20260503234901 76 311 8.0 11.0 0.00 0.00 0.00 18 926.9
20260503234401 77 323 7.0 11.0 0.00 0.00 0.00 16 926.9
20260503233901 76 288 5.0 11.0 0.00 0.00 0.00 16 927.2
20260503233402 76 300 9.0 15.0 0.00 0.00 0.00 16 927.2
20260503232901 76 347 7.0 16.0 0.00 0.00 0.00 18 927.2
20260503232402 75 358 10.0 13.0 0.00 0.00 0.00 18 927.2
20260503231902 75 349 5.0 16.0 0.00 0.00 0.00 19 927.2
20260503231401 75 330 14.0 19.0 0.00 0.00 0.00 17 927.2
20260503230901 75 297 10.0 16.0 0.00 0.00 0.00 18 927.2
20260503230401 76 310 10.0 15.0 0.00 0.00 0.00 17 927.5
20260503225902 76 294 13.0 14.0 0.00 0.00 0.00 17 927.5
20260503225402 76 309 4.0 14.0 0.00 0.00 0.00 20 927.5
20260503224902 76 277 10.0 13.0 0.00 0.00 0.00 18 927.5
20260503224402 76 328 12.0 15.0 0.00 0.00 0.00 16 927.9
20260503223902 76 312 7.0 16.0 0.00 0.00 0.00 17 927.5
20260503223402 76 343 9.0 13.0 0.00 0.00 0.00 17 927.9
20260503222901 76 328 6.0 13.0 0.00 0.00 0.00 17 927.5
20260503222402 76 318 9.0 10.0 0.00 0.00 0.00 17 927.5
20260503221902 76 346 9.0 13.0 0.00 0.00 0.00 17 928.2
20260503221401 76 14 7.0 10.0 0.00 0.00 0.00 21 927.9
20260503220902 75 322 8.0 11.0 0.00 0.00 0.00 19 928.2
20260503220402 76 306 8.0 12.0 0.00 0.00 0.00 19 927.9
20260503215904 75 351 8.0 13.0 0.00 0.00 0.00 20 928.2
20260503215402 75 295 5.0 12.0 0.00 0.00 0.00 19 928.2
20260503214902 75 324 10.0 13.0 0.00 0.00 0.00 21 928.5
20260503214401 75 345 8.0 11.0 0.00 0.00 0.00 23 928.5
20260503213901 75 320 5.0 9.0 0.00 0.00 0.00 20 928.5
20260503213402 74 321 5.0 9.0 0.00 0.00 0.00 21 928.9
20260503212903 75 310 7.0 8.0 0.00 0.00 0.00 24 928.9
20260503212402 74 329 4.0 8.0 0.00 0.00 0.00 24 928.9
20260503211903 74 316 5.0 11.0 0.00 0.00 0.00 23 928.9
20260503211402 74 308 5.0 9.0 0.00 0.00 0.00 24 928.9
20260503210901 73 0 5.0 6.0 0.00 0.00 0.00 23 929.2
20260503210401 74 335 5.0 13.0 0.00 0.00 0.00 23 929.2
20260503205901 74 359 5.0 11.0 0.00 0.00 0.00 24 929.2
20260503205402 73 133 2.0 8.0 0.00 0.00 0.00 27 929.6
20260503204901 74 186 7.0 8.0 0.00 0.00 0.00 25 929.6
20260503204401 74 276 8.0 10.0 0.00 0.00 0.00 23 929.6
20260503203902 73 91 2.0 11.0 0.00 0.00 0.00 24 929.6
20260503203402 74 298 4.0 7.0 0.00 0.00 0.00 28 929.6
20260503202902 75 6 3.0 6.0 0.00 0.00 0.00 30 929.6
20260503202401 74 218 3.0 5.0 0.00 0.00 0.00 29 929.9
20260503201902 74 208 3.0 10.0 0.00 0.00 0.00 29 929.9
20260503201401 73 115 2.0 3.0 0.00 0.00 0.00 34 929.6
20260503200902 72 130 2.0 6.0 0.00 0.00 0.00 32 929.9
20260503200401 73 157 4.0 5.0 0.00 0.00 0.00 31 929.9
20260503195901 73 219 4.0 7.0 0.00 0.00 0.00 32 929.9
20260503195401 73 345 9.0 9.0 0.00 0.00 0.00 29 929.9
20260503194902 72 152 3.0 8.0 0.00 0.00 0.00 32 930.2
20260503194401 72 172 7.0 8.0 0.00 0.00 0.00 31 930.2
20260503193903 71 210 3.0 6.0 0.00 0.00 0.00 33 930.2
20260503193401 71 329 2.0 5.0 0.00 0.00 0.00 36 930.2
20260503192901 71 200 3.0 4.0 0.00 0.00 0.00 33 930.6
20260503192402 71 188 2.0 8.0 0.00 0.00 0.00 30 930.6
20260503191902 71 318 6.0 8.0 0.00 0.00 0.00 32 930.2
20260503191402 71 320 2.0 8.0 0.00 0.00 0.00 34 930.6
20260503190902 71 0 2.0 10.0 0.00 0.00 0.00 33 930.6
20260503190402 69 110 3.0 8.0 0.00 0.00 0.00 37 930.9
20260503185902 70 333 3.0 13.0 0.00 0.00 0.00 32 930.6
20260503185403 70 262 5.0 6.0 0.00 0.00 0.00 40 930.6
20260503184902 71 284 5.0 9.0 0.00 0.00 0.00 35 930.9
20260503184402 70 308 5.0 8.0 0.00 0.00 0.00 39 930.6
20260503183901 70 216 2.0 8.0 0.00 0.00 0.00 39 930.6
20260503183401 70 297 6.0 7.0 0.00 0.00 0.00 38 930.6
20260503182902 68 264 2.0 6.0 0.00 0.00 0.00 36 930.9
20260503182402 68 284 5.0 6.0 0.00 0.00 0.00 41 931.3
20260503181901 68 263 6.0 9.0 0.00 0.00 0.00 39 930.9
20260503181403 68 305 5.0 8.0 0.00 0.00 0.00 38 931.3
20260503180902 67 292 4.0 6.0 0.00 0.00 0.00 37 931.3
20260503180401 66 316 5.0 6.0 0.00 0.00 0.00 39 931.3
20260503175902 66 12 6.0 6.0 0.00 0.00 0.00 43 931.3
20260503175402 66 68 1.0 4.0 0.00 0.00 0.00 40 931.3
20260503174902 65 280 2.0 4.0 0.00 0.00 0.00 40 931.3
20260503174401 66 315 2.0 5.0 0.00 0.00 0.00 41 931.3
20260503173901 65 55 1.0 6.0 0.00 0.00 0.00 42 931.3
20260503173401 64 358 1.0 5.0 0.00 0.00 0.00 43 931.6
20260503172905 65 243 1.0 6.0 0.00 0.00 0.00 40 931.6
20260503172403 64 136 2.0 5.0 0.00 0.00 0.00 44 931.6
20260503171902 64 138 3.0 3.0 0.00 0.00 0.00 43 931.6
20260503171402 62 333 2.0 2.0 0.00 0.00 0.00 49 931.6
20260503170901 62 340 2.0 2.0 0.00 0.00 0.00 45 931.9
20260503170403 63 32 4.0 5.0 0.00 0.00 0.00 44 931.9
20260503150903 51 179 2.0 3.0 0.00 0.00 0.00 72 933.0
20260503150403 50 153 4.0 4.0 0.00 0.00 0.00 73 933.0
20260503131402 38 317 2.0 3.0 0.00 0.00 0.00 98 933.0
20260503130902 38 138 1.0 2.0 0.00 0.00 0.00 98 933.3
20260503130403 38 122 3.0 4.0 0.00 0.00 0.00 99 933.0
20260503110402 40 81 2.0 2.0 0.00 0.00 0.00 97 933.0
20260503090402 43 139 0.0 1.0 0.00 0.00 0.00 92 932.6
20260503081402 44 97 1.0 1.0 0.00 0.00 0.00 87 933.0
20260503080904 45 144 3.0 3.0 0.00 0.00 0.00 87 932.6
20260503080401 44 119 2.0 3.0 0.00 0.00 0.00 88 932.6
20260503072903 46 128 2.0 2.0 0.00 0.00 0.00 86 932.6
20260503072402 46 38 4.0 4.0 0.00 0.00 0.00 84 933.0
20260503071902 46 40 3.0 3.0 0.00 0.00 0.00 84 932.6
20260503071401 46 95 1.0 3.0 0.00 0.00 0.00 83 932.6
20260503070903 46 119 3.0 3.0 0.00 0.00 0.00 83 932.6
20260503070404 47 119 3.0 3.0 0.00 0.00 0.00 82 932.3